GW1800 Weather Reports


time (UTC)temp
C
wind
direction
speed
KPH
gust
KPH
rain 1hr
cm
rain 24hr
cm
rain mn
cm
humidity
%
barometer
mb
20260902232321 32 195 1.6 3.2 0.00 0.00 0.00 62 999.8
20260902231815 32 196 1.6 1.6 0.00 0.00 0.00 61 999.8
20260902231310 33 196 1.6 1.6 0.00 0.00 0.00 61 1000.0
20260902230805 33 195 1.6 1.6 0.00 0.00 0.00 59 999.7
20260902230304 33 189 1.6 1.6 0.00 0.00 0.00 59 999.9
20260902225759 33 241 4.8 8.0 0.00 0.00 0.00 58 999.7
20260902225254 33 206 1.6 3.2 0.00 0.00 0.00 58 999.9
20260902224752 33 211 1.6 3.2 0.00 0.00 0.00 57 999.9
20260902224248 33 182 1.6 1.6 0.00 0.00 0.00 57 1000.0
20260902223744 33 289 4.8 4.8 0.00 0.00 0.00 57 999.9
20260902223243 34 234 4.8 4.8 0.00 0.00 0.00 57 999.8
20260902222742 34 238 4.8 8.0 0.00 0.00 0.00 56 999.9
20260902222236 34 252 3.2 3.2 0.00 0.00 0.00 56 999.9
20260902221731 33 216 4.8 4.8 0.00 0.00 0.00 56 1000.1
20260902221230 34 248 9.7 12.9 0.00 0.00 0.00 55 1000.0
20260902220725 34 210 4.8 4.8 0.00 0.00 0.00 56 999.9
20260902220220 34 210 1.6 1.6 0.00 0.00 0.00 55 1000.0
20260902215715 35 175 6.4 9.7 0.00 0.00 0.00 55 1000.0
20260902215211 34 193 8.0 11.3 0.00 0.00 0.00 55 999.9
20260902214706 34 203 4.8 8.0 0.00 0.00 0.00 56 999.9
20260902214205 34 237 8.0 11.3 0.00 0.00 0.00 55 1000.0
20260902213701 35 201 9.7 12.9 0.00 0.00 0.00 56 1000.1
20260902213155 35 219 8.0 9.7 0.00 0.00 0.00 54 1000.1
20260902212650 35 172 6.4 8.0 0.00 0.00 0.00 54 1000.0
20260902212146 35 226 6.4 8.0 0.00 0.00 0.00 54 1000.0
20260902211642 34 254 6.4 8.0 0.00 0.00 0.00 55 1000.1
20260902211137 34 233 14.5 16.1 0.00 0.00 0.00 54 1000.0
20260902210636 35 207 4.8 8.0 0.00 0.00 0.00 54 1000.0
20260902210132 35 209 3.2 4.8 0.00 0.00 0.00 54 1000.1
20260902205630 35 234 4.8 4.8 0.00 0.00 0.00 55 1000.1
20260902205125 35 264 4.8 4.8 0.00 0.00 0.00 55 1000.2
20260902204620 35 265 4.8 8.0 0.00 0.00 0.00 55 1000.3
20260902204115 35 205 1.6 1.6 0.00 0.00 0.00 56 1000.3
20260902203610 34 213 6.4 8.0 0.00 0.00 0.00 54 1000.4
20260902203110 35 233 6.4 9.7 0.00 0.00 0.00 54 1000.3
20260902202605 35 172 11.3 12.9 0.00 0.00 0.00 54 1000.5
20260902202102 35 202 3.2 4.8 0.00 0.00 0.00 55 1000.5
20260902201552 35 197 4.8 8.0 0.00 0.00 0.00 54 1000.4
20260902201051 35 219 4.8 4.8 0.00 0.00 0.00 53 1000.3
20260902200546 35 280 6.4 9.7 0.00 0.00 0.00 54 1000.4
20260902200042 35 224 4.8 8.0 0.00 0.00 0.00 55 1000.4
20260902195538 35 228 6.4 9.7 0.00 0.00 0.00 54 1000.6
20260902195036 35 203 3.2 3.2 0.00 0.00 0.00 54 1000.6
20260902194530 35 224 12.9 17.7 0.00 0.00 0.00 54 1000.7
20260902194026 34 212 4.8 8.0 0.00 0.00 0.00 56 1000.7
20260902193522 35 222 9.7 12.9 0.00 0.00 0.00 54 1000.9
20260902193021 34 264 4.8 4.8 0.00 0.00 0.00 55 1000.7
20260902192520 35 227 8.0 9.7 0.00 0.00 0.00 54 1001.0
20260902192019 35 202 6.4 8.0 0.00 0.00 0.00 55 1000.9
20260902191515 35 235 4.8 4.8 0.00 0.00 0.00 55 1000.9
20260902191009 35 205 3.2 3.2 0.00 0.00 0.00 54 1001.0
20260902190504 34 213 4.8 4.8 0.00 0.00 0.00 56 1000.9
20260902185959 35 236 6.4 8.0 0.00 0.00 0.00 55 1001.0
20260902185456 34 261 8.0 11.3 0.00 0.00 0.00 57 1001.1
20260902184950 35 253 4.8 8.0 0.00 0.00 0.00 57 1001.3
20260902184446 35 217 4.8 4.8 0.00 0.00 0.00 56 1001.3
20260902183941 34 260 4.8 4.8 0.00 0.00 0.00 56 1001.3
20260902183438 33 215 3.2 3.2 0.00 0.00 0.00 59 1001.2
20260902182933 34 182 3.2 4.8 0.00 0.00 0.00 56 1001.5
20260902182429 34 288 8.0 11.3 0.00 0.00 0.00 56 1001.3
20260902181925 34 309 8.0 9.7 0.00 0.00 0.00 57 1001.3
20260902181420 35 228 14.5 20.9 0.00 0.00 0.00 56 1001.4
20260902180915 33 200 1.6 1.6 0.00 0.00 0.00 57 1001.5
20260902180410 33 264 6.4 8.0 0.00 0.00 0.00 59 1001.6
20260902175906 34 212 4.8 4.8 0.00 0.00 0.00 57 1001.5
20260902175401 34 276 6.4 8.0 0.00 0.00 0.00 60 1001.6
20260902174856 34 215 4.8 8.0 0.00 0.00 0.00 58 1001.5
20260902174353 33 247 3.2 8.0 0.00 0.00 0.00 59 1001.5
20260902173843 33 283 4.8 4.8 0.00 0.00 0.00 60 1001.8
20260902173342 33 231 4.8 8.0 0.00 0.00 0.00 58 1001.5
20260902172837 33 225 6.4 9.7 0.00 0.00 0.00 59 1001.8
20260902172336 33 211 4.8 4.8 0.00 0.00 0.00 59 1001.7
20260902171832 33 216 4.8 8.0 0.00 0.00 0.00 61 1001.9
20260902171327 33 240 4.8 4.8 0.00 0.00 0.00 61 1002.0
20260902170823 33 236 8.0 11.3 0.00 0.00 0.00 62 1002.0
20260902170318 33 273 4.8 4.8 0.00 0.00 0.00 62 1002.1
20260902165808 33 231 4.8 4.8 0.00 0.00 0.00 63 1001.9
20260902165309 33 281 4.8 8.0 0.00 0.00 0.00 65 1002.0
20260902164802 33 205 4.8 4.8 0.00 0.00 0.00 63 1002.0
20260902164257 32 195 6.4 9.7 0.00 0.00 0.00 64 1002.2
20260902163751 32 261 6.4 9.7 0.00 0.00 0.00 64 1002.2
20260902163245 32 235 6.4 9.7 0.00 0.00 0.00 65 1002.1
20260902162744 32 204 6.4 9.7 0.00 0.00 0.00 65 1002.2
20260902162239 32 217 8.0 9.7 0.00 0.00 0.00 64 1002.2
20260902161734 32 202 1.6 1.6 0.00 0.00 0.00 67 1002.2
20260902161229 32 288 8.0 9.7 0.00 0.00 0.00 65 1002.4
20260902160726 32 178 3.2 3.2 0.00 0.00 0.00 66 1002.2
20260902160220 32 196 4.8 9.7 0.00 0.00 0.00 67 1002.5
20260902155718 32 199 3.2 4.8 0.00 0.00 0.00 67 1002.6
20260902155217 32 232 4.8 4.8 0.00 0.00 0.00 66 1002.5
20260902154712 32 238 4.8 4.8 0.00 0.00 0.00 68 1002.7
20260902154207 32 249 11.3 14.5 0.00 0.00 0.00 66 1002.5
20260902153706 31 198 1.6 1.6 0.00 0.00 0.00 69 1002.6
20260902153201 31 185 1.6 1.6 0.00 0.00 0.00 70 1002.5
20260902152657 31 219 6.4 9.7 0.00 0.00 0.00 69 1002.6
20260902152152 31 285 6.4 8.0 0.00 0.00 0.00 69 1002.6
20260902151648 31 223 3.2 4.8 0.00 0.00 0.00 70 1002.6
20260902151143 31 275 4.8 4.8 0.00 0.00 0.00 70 1002.5
20260902150638 31 236 1.6 3.2 0.00 0.00 0.00 71 1002.5
20260902150133 31 209 3.2 3.2 0.00 0.00 0.00 73 1002.4
20260902145633 30 253 3.2 3.2 0.00 0.00 0.00 73 1002.5
20260902145132 30 245 6.4 8.0 0.00 0.00 0.00 74 1002.5
20260902144629 30 187 4.8 4.8 0.00 0.00 0.00 74 1002.7
20260902144124 30 216 4.8 4.8 0.00 0.00 0.00 74 1002.5
20260902143619 30 207 4.8 4.8 0.00 0.00 0.00 75 1002.6
20260902143115 29 248 4.8 4.8 0.00 0.00 0.00 77 1002.5
20260902142610 28 206 4.8 4.8 0.00 0.00 0.00 77 1002.6
20260902142106 28 212 8.0 9.7 0.00 0.00 0.00 77 1002.5
20260902141605 28 194 4.8 8.0 0.00 0.00 0.00 77 1002.6
20260902141101 28 261 3.2 3.2 0.00 0.00 0.00 77 1002.6
20260902140555 28 247 3.2 4.8 0.00 0.00 0.00 77 1002.4
20260902140051 28 211 3.2 3.2 0.00 0.00 0.00 78 1002.5
20260902135550 28 210 1.6 1.6 0.00 0.00 0.00 80 1002.5
20260902135045 27 171 3.2 3.2 0.00 0.00 0.00 81 1002.6
20260902134541 27 296 3.2 4.8 0.00 0.00 0.00 80 1002.5
20260902134041 27 191 3.2 3.2 0.00 0.00 0.00 81 1002.5
20260902133536 27 182 1.6 3.2 0.00 0.00 0.00 82 1002.6
20260902133035 27 191 3.2 3.2 0.00 0.00 0.00 82 1002.5
20260902132531 26 214 8.0 9.7 0.00 0.00 0.00 83 1002.5
20260902132027 26 194 1.6 1.6 0.00 0.00 0.00 85 1002.9
20260902131523 26 215 3.2 3.2 0.00 0.00 0.00 86 1002.7
20260902131022 25 208 6.4 8.0 0.00 0.00 0.00 86 1002.5
20260902130518 25 212 3.2 3.2 0.00 0.00 0.00 86 1002.7
20260902130013 25 197 1.6 1.6 0.00 0.00 0.00 87 1002.6
20260902125509 25 201 4.8 4.8 0.00 0.00 0.00 87 1002.6
20260902125004 25 203 1.6 3.2 0.00 0.00 0.00 88 1002.6
20260902124501 25 182 3.2 3.2 0.00 0.00 0.00 88 1002.5
20260902123955 25 212 1.6 3.2 0.00 0.00 0.00 88 1002.5
20260902123452 25 189 1.6 1.6 0.00 0.00 0.00 89 1002.5
20260902122950 25 195 3.2 3.2 0.00 0.00 0.00 89 1002.3
20260902122446 24 189 1.6 1.6 0.00 0.00 0.00 90 1002.3
20260902121942 24 197 1.6 1.6 0.00 0.00 0.00 90 1002.1
20260902121442 23 182 1.6 1.6 0.00 0.00 0.00 93 1002.1
20260902120936 23 254 0.0 0.0 0.00 0.00 0.00 96 1002.2
20260902120433 22 192 0.0 0.0 0.00 0.00 0.00 98 1002.0
20260902115932 22 192 0.0 0.0 0.00 0.00 0.00 99 1002.1
20260902115428 22 192 0.0 0.0 0.00 0.00 0.00 99 1002.1
20260902114925 21 192 0.0 0.0 0.00 0.00 0.00 99 1002.0
20260902114420 21 192 0.0 0.0 0.00 0.00 0.00 99 1002.0
20260902113915 21 192 0.0 0.0 0.00 0.00 0.00 99 1002.0
20260902113411 21 192 0.0 0.0 0.00 0.00 0.00 99 1001.8
20260902112910 21 192 0.0 0.0 0.00 0.00 0.00 99 1001.9
20260902112407 21 192 0.0 0.0 0.00 0.00 0.00 99 1001.7
20260902111902 21 192 0.0 0.0 0.00 0.00 0.00 99 1001.8
20260902111359 21 192 0.0 0.0 0.00 0.00 0.00 99 1001.8
20260902110854 21 192 0.0 0.0 0.00 0.00 0.00 99 1001.8
20260902110350 21 192 0.0 0.0 0.00 0.00 0.00 99 1001.7
20260902105850 21 192 0.0 0.0 0.00 0.00 0.00 99 1001.6
20260902105344 21 192 0.0 0.0 0.00 0.00 0.00 99 1001.7
20260902104840 21 192 0.0 0.0 0.00 0.00 0.00 99 1001.6
20260902104336 21 192 0.0 0.0 0.00 0.00 0.00 99 1001.6
20260902103835 21 192 0.0 0.0 0.00 0.00 0.00 99 1001.5
20260902103331 21 192 0.0 0.0 0.00 0.00 0.00 99 1001.6
20260902102825 21 192 0.0 0.0 0.00 0.00 0.00 99 1001.5
20260902102324 21 192 0.0 0.0 0.00 0.00 0.00 99 1001.4
20260902101818 21 192 0.0 0.0 0.00 0.00 0.00 99 1001.7
20260902101313 21 192 0.0 0.0 0.00 0.00 0.00 99 1001.8
20260902100812 21 192 0.0 0.0 0.00 0.00 0.00 99 1001.4
20260902100306 21 192 0.0 0.0 0.00 0.00 0.00 99 1001.6
20260902095801 21 192 0.0 0.0 0.00 0.00 0.00 99 1001.5
20260902095256 21 192 0.0 0.0 0.00 0.00 0.00 99 1001.5
20260902094750 21 192 0.0 0.0 0.00 0.00 0.00 99 1001.4
20260902094247 22 192 0.0 0.0 0.00 0.00 0.00 99 1001.3
20260902093746 22 192 0.0 0.0 0.00 0.00 0.00 99 1001.4
20260902093241 22 192 0.0 0.0 0.00 0.00 0.00 99 1001.3
20260902092740 21 192 0.0 0.0 0.00 0.00 0.00 99 1001.5
20260902092236 21 192 0.0 0.0 0.00 0.00 0.00 99 1001.5
20260902091735 21 192 0.0 0.0 0.00 0.00 0.00 99 1001.4
20260902091232 21 192 0.0 0.0 0.00 0.00 0.00 99 1001.4
20260902090728 21 192 0.0 0.0 0.00 0.00 0.00 99 1001.3
20260902090227 21 192 0.0 0.0 0.00 0.00 0.00 99 1001.2
20260902085721 21 192 0.0 0.0 0.00 0.00 0.00 98 1001.2
20260902085217 22 192 0.0 0.0 0.00 0.00 0.00 98 1001.2
20260902084713 22 192 0.0 0.0 0.00 0.00 0.00 98 1001.0
20260902084209 21 192 0.0 0.0 0.00 0.00 0.00 98 1001.0
20260902083703 21 192 0.0 0.0 0.00 0.00 0.00 98 1000.9
20260902083203 22 192 0.0 0.0 0.00 0.00 0.00 98 1000.8
20260902082658 22 192 0.0 0.0 0.00 0.00 0.00 98 1001.0
20260902082155 22 192 0.0 0.0 0.00 0.00 0.00 98 1000.9
20260902081651 22 192 0.0 0.0 0.00 0.00 0.00 98 1000.8
20260902081146 22 192 0.0 0.0 0.00 0.00 0.00 98 1000.8
20260902080641 22 192 0.0 0.0 0.00 0.00 0.00 98 1000.8
20260902080138 22 192 0.0 0.0 0.00 0.00 0.00 97 1000.9
20260902075637 22 192 0.0 0.0 0.00 0.00 0.00 97 1000.7
20260902075134 22 192 0.0 0.0 0.00 0.00 0.00 96 1000.8
20260902074634 22 192 0.0 0.0 0.00 0.00 0.00 96 1000.8
20260902074129 22 192 0.0 0.0 0.00 0.00 0.00 96 1000.8
20260902073624 22 192 0.0 0.0 0.00 0.00 0.00 95 1000.8
20260902073121 22 192 0.0 0.0 0.00 0.00 0.00 95 1000.7
20260902072616 23 192 0.0 0.0 0.00 0.00 0.00 95 1000.8
20260902072113 23 192 0.0 0.0 0.00 0.00 0.00 95 1000.7
20260902071607 22 192 0.0 0.0 0.00 0.00 0.00 95 1000.8
20260902071103 23 192 0.0 0.0 0.00 0.00 0.00 95 1000.7
20260902070558 23 192 0.0 0.0 0.00 0.00 0.00 95 1000.9
20260902070053 22 192 0.0 0.0 0.00 0.00 0.00 95 1000.7
20260902065547 22 192 0.0 0.0 0.00 0.00 0.00 96 1000.8
20260902065042 22 192 0.0 0.0 0.00 0.00 0.00 96 1000.7
20260902064538 22 192 0.0 0.0 0.00 0.00 0.00 96 1000.8
20260902064034 22 192 0.0 0.0 0.00 0.00 0.00 96 1000.9
20260902063533 22 192 0.0 0.0 0.00 0.00 0.00 96 1000.8
20260902063028 22 192 0.0 0.0 0.00 0.00 0.00 95 1000.9
20260902062526 22 192 0.0 0.0 0.00 0.00 0.00 95 1000.8
20260902062022 22 192 0.0 0.0 0.00 0.00 0.00 95 1000.9
20260902061517 22 192 0.0 0.0 0.00 0.00 0.00 95 1001.0
20260902061013 22 192 0.0 0.0 0.00 0.00 0.00 95 1000.8
20260902060509 23 192 0.0 0.0 0.00 0.00 0.00 94 1000.9
20260902060005 23 192 0.0 0.0 0.00 0.00 0.00 94 1000.8
20260902055501 23 192 0.0 0.0 0.00 0.00 0.00 94 1001.0
20260902054955 23 192 0.0 0.0 0.00 0.00 0.00 93 1000.9
20260902054450 23 192 0.0 0.0 0.00 0.00 0.00 93 1001.0
20260902053946 23 192 0.0 0.0 0.00 0.00 0.00 93 1000.9
20260902053441 23 192 0.0 0.0 0.00 0.00 0.00 93 1000.8
20260902052940 23 192 0.0 0.0 0.00 0.00 0.00 92 1000.9
20260902052435 23 192 0.0 0.0 0.00 0.00 0.00 92 1000.9
20260902051930 23 192 0.0 0.0 0.00 0.00 0.00 92 1000.9
20260902051425 23 192 0.0 0.0 0.00 0.00 0.00 92 1000.9
20260902050924 23 192 0.0 0.0 0.00 0.00 0.00 92 1000.9
20260902050423 23 192 0.0 0.0 0.00 0.00 0.00 92 1001.0
20260902045919 23 192 0.0 0.0 0.00 0.00 0.00 92 1001.0
20260902045414 23 192 0.0 0.0 0.00 0.00 0.00 91 1000.9
20260902044910 23 192 0.0 0.0 0.00 0.00 0.00 91 1000.7
20260902044406 23 192 0.0 0.0 0.00 0.00 0.00 91 1000.9
20260902043901 23 192 0.0 0.0 0.00 0.00 0.00 91 1001.0
20260902043356 23 192 0.0 0.0 0.00 0.00 0.00 90 1000.8
20260902042851 24 192 0.0 0.0 0.00 0.00 0.00 90 1001.0
20260902042350 24 192 0.0 0.0 0.00 0.00 0.00 89 1000.9
20260902041846 24 192 0.0 0.0 0.00 0.00 0.00 89 1000.9
20260902041346 25 192 0.0 0.0 0.00 0.00 0.00 88 1001.1
20260902040845 25 192 0.0 0.0 0.00 0.00 0.00 88 1000.9
20260902040340 25 192 0.0 0.0 0.00 0.00 0.00 87 1000.9
20260902035838 25 192 0.0 0.0 0.00 0.00 0.00 87 1000.8
20260902035334 25 192 0.0 0.0 0.00 0.00 0.00 86 1000.9
20260902034833 25 192 0.0 0.0 0.00 0.00 0.00 86 1000.9
20260902034329 25 192 0.0 0.0 0.00 0.00 0.00 85 1000.8
20260902033826 25 192 0.0 0.0 0.00 0.00 0.00 85 1001.0
20260902033322 25 192 0.0 0.0 0.00 0.00 0.00 85 1000.8
20260902032821 25 192 0.0 0.0 0.00 0.00 0.00 85 1000.9
20260902032315 25 192 0.0 0.0 0.00 0.00 0.00 85 1000.9
20260902031815 25 192 0.0 0.0 0.00 0.00 0.00 85 1000.8
20260902031312 25 192 0.0 0.0 0.00 0.00 0.00 85 1000.7
20260902030807 25 192 0.0 0.0 0.00 0.00 0.00 85 1000.9
20260902030302 25 192 0.0 0.0 0.00 0.00 0.00 86 1001.0
20260902025801 26 192 0.0 0.0 0.00 0.00 0.00 85 1000.6
20260902025257 26 192 0.0 0.0 0.00 0.00 0.00 85 1000.9
20260902024750 26 192 0.0 0.0 0.00 0.00 0.00 85 1000.9
20260902024246 26 192 0.0 0.0 0.00 0.00 0.00 85 1001.1
20260902023742 25 192 0.0 0.0 0.00 0.00 0.00 87 1001.0
20260902023237 25 192 0.0 0.0 0.00 0.00 0.00 86 1001.0
20260902022736 26 192 0.0 0.0 0.00 0.00 0.00 85 1000.9
20260902022232 26 192 0.0 0.0 0.00 0.00 0.00 85 1001.0
20260902021727 26 192 0.0 0.0 0.00 0.00 0.00 85 1000.9
20260902021227 26 192 0.0 0.0 0.00 0.00 0.00 85 1001.1
20260902020724 26 192 0.0 0.0 0.00 0.00 0.00 85 1001.0
20260902020219 26 192 0.0 0.0 0.00 0.00 0.00 84 1000.9
20260902015714 26 192 0.0 0.0 0.00 0.00 0.00 84 1000.9
20260902015211 26 192 0.0 0.0 0.00 0.00 0.00 83 1000.9
20260902014706 26 192 0.0 0.0 0.00 0.00 0.00 83 1000.8
20260902014203 27 192 0.0 0.0 0.00 0.00 0.00 82 1000.8
20260902013701 27 192 0.0 0.0 0.00 0.00 0.00 82 1000.7
20260902013156 27 192 0.0 0.0 0.00 0.00 0.00 81 1000.7
20260902012652 27 192 0.0 0.0 0.00 0.00 0.00 81 1000.7
20260902012147 27 192 0.0 0.0 0.00 0.00 0.00 81 1000.6
20260902011643 27 191 0.0 0.0 0.00 0.00 0.00 81 1000.5
20260902011137 27 191 0.0 0.0 0.00 0.00 0.00 81 1000.6
20260902010636 27 191 0.0 0.0 0.00 0.00 0.00 80 1000.4
20260902010133 27 191 0.0 0.0 0.00 0.00 0.00 80 1000.5
20260902005630 27 191 0.0 0.0 0.00 0.00 0.00 80 1000.6
20260902005126 27 191 0.0 0.0 0.00 0.00 0.00 80 1000.4
20260902004626 27 191 0.0 0.0 0.00 0.00 0.00 79 1000.4
20260902004121 28 191 0.0 0.0 0.00 0.00 0.00 79 1000.4
20260902003616 28 191 0.0 0.0 0.00 0.00 0.00 78 1000.6
20260902003112 28 191 0.0 0.0 0.00 0.00 0.00 77 1000.4
20260902002607 28 191 0.0 0.0 0.00 0.00 0.00 76 1000.4
20260902002102 28 191 0.0 0.0 0.00 0.00 0.00 75 1000.5
20260902001556 29 191 0.0 0.0 0.00 0.00 0.00 74 1000.6
20260902001052 30 191 0.0 1.6 0.00 0.00 0.00 73 1000.4
20260902000546 30 191 0.0 1.6 0.00 0.00 0.00 72 1000.6
20260902000041 30 191 0.0 0.0 0.00 0.00 0.00 70 1000.4
20260901235536 30 191 1.6 1.6 0.00 0.00 0.00 69 1000.3
20260901235032 31 187 0.0 1.6 0.00 0.00 0.00 69 1000.5
20260901234530 31 197 1.6 1.6 0.00 0.00 0.00 68 1000.4
20260901234025 31 178 1.6 1.6 0.00 0.00 0.00 67 1000.7
20260901233520 31 185 0.0 1.6 0.00 0.00 0.00 66 1000.5
20260901233016 31 215 3.2 3.2 0.00 0.00 0.00 65 1000.5